Hickory, NC

10:26 AM EDT on April 30, 2017 (GMT -0400)
Hickory Regional

Weather History for KHKY - May, 2012

Change the Weather History Date:

Monday, May 7, 2012

  Actual Average Record
Temperature  
Mean Temperature 68 °F -  
Max Temperature 77 °F 74 °F 90 °F (1952)
Min Temperature 60 °F 51 °F 36 °F (1989)
Cooling Degree Days 2    
Growing Degree Days 18 (Base 50)    
Moisture  
Dew Point 60 °F    
Average Humidity 80    
Maximum Humidity 100    
Minimum Humidity 54    
Precipitation  
Precipitation 0.00 in - - ()
Sea Level Pressure  
Sea Level Pressure 30.00 in    
Wind  
Wind Speed 1 mph (ENE)    
Max Wind Speed 7 mph    
Max Gust Speed -    
Visibility 9 miles    
Events Rain    
Averages and records for this station are not official NWS values.
T = Trace of Precipitation, MM = Missing Value Source: NWS Daily Summary

Daily Weather History Graph

Daily Weather History Graph

Search for Another Location

Airport or City:

Trip Planner

Search our weather history database for the weather conditions in past years. The results will help you decide how hot, cold, wet, or windy it might be!

Date:

Astronomy

May. 07, 2012 Rise Set
Actual Time 6:26 AM EDT 8:17 PM EDT
Civil Twilight 5:59 AM EDT 8:45 PM EDT
Nautical Twilight 5:25 AM EDT 9:19 PM EDT
Astronomical Twilight 4:49 AM EDT 9:55 PM EDT
Moon 10:25 PM EDT (5/7) 7:34 AM EDT (5/7)
Length of Visible Light 14h 46m
Length of Day
13h 50m
Waning Gibbous, 97% of the Moon is Illuminated
May 7
Waning Gibbous
May 12
Last Quarter
May 20
New
May 28
First Quarter
Jun 4
Full

Hourly Weather History & Observations

Time (EDT) Temp. Dew Point Humidity Pressure Visibility Wind Dir Wind Speed Gust Speed Precip Events Conditions
12:53 AM 66.9 °F 59.0 °F 76% 29.99 in 10.0 mi Calm Calm - N/A   Clear
1:53 AM 66.0 °F 59.0 °F 78% 29.98 in 10.0 mi Calm Calm - N/A   Clear
2:53 AM 63.0 °F 60.1 °F 90% 29.98 in 10.0 mi Calm Calm - N/A   Clear
3:53 AM 62.1 °F 59.0 °F 90% 29.96 in 10.0 mi Calm Calm - N/A   Clear
4:14 AM 60.8 °F 59.0 °F 94% 30.02 in 9.0 mi Calm Calm - N/A   Mostly Cloudy
4:53 AM 61.0 °F 59.0 °F 93% 29.97 in 8.0 mi Calm Calm - N/A   Mostly Cloudy
5:35 AM 60.8 °F 60.8 °F 100% 30.02 in 7.0 mi Calm Calm - N/A   Overcast
5:53 AM 61.0 °F 59.0 °F 93% 29.98 in 7.0 mi Calm Calm - N/A   Overcast
6:07 AM 62.6 °F 60.8 °F 94% 30.04 in 7.0 mi Calm Calm - N/A   Overcast
6:19 AM 62.6 °F 60.8 °F 94% 30.04 in 7.0 mi NE 3.5 mph - N/A   Overcast
6:53 AM 63.0 °F 61.0 °F 93% 29.99 in 7.0 mi ENE 4.6 mph - N/A   Overcast
7:53 AM 64.0 °F 60.1 °F 87% 30.01 in 9.0 mi Calm Calm - N/A   Overcast
8:53 AM 64.9 °F 60.1 °F 84% 30.01 in 5.0 mi Calm Calm - N/A   Haze
9:53 AM 64.9 °F 60.1 °F 84% 30.01 in 5.0 mi Calm Calm - N/A   Haze
10:53 AM 66.0 °F 61.0 °F 84% 30.02 in 5.0 mi Calm Calm - N/A   Haze
11:14 AM 66.2 °F 60.8 °F 83% 30.08 in 10.0 mi Calm Calm - N/A   Overcast
11:34 AM 66.2 °F 60.8 °F 83% 30.08 in 10.0 mi NE 4.6 mph - N/A   Overcast
11:53 AM 64.9 °F 61.0 °F 87% 30.03 in 6.0 mi ENE 4.6 mph - 0.00 in Rain Light Rain
12:37 PM 66.2 °F 62.6 °F 88% 30.09 in 7.0 mi ENE 4.6 mph - 0.00 in   Overcast
12:53 PM 66.9 °F 62.1 °F 84% 30.04 in 8.0 mi East 5.8 mph - 0.00 in   Overcast
1:25 PM 66.2 °F 60.8 °F 83% 30.08 in 9.0 mi East 4.6 mph - N/A   Overcast
1:32 PM 66.2 °F 60.8 °F 83% 30.08 in 9.0 mi East 5.8 mph - N/A   Overcast
1:41 PM 66.2 °F 60.8 °F 83% 30.07 in 10.0 mi East 6.9 mph - N/A   Overcast
1:53 PM 69.1 °F 62.1 °F 78% 30.02 in 10.0 mi ENE 6.9 mph - N/A   Overcast
2:53 PM 73.0 °F 61.0 °F 66% 29.99 in 10.0 mi Variable 4.6 mph - N/A   Mostly Cloudy
3:53 PM 75.9 °F 59.0 °F 56% 29.95 in 10.0 mi Variable 4.6 mph - N/A   Scattered Clouds
4:53 PM 75.9 °F 57.9 °F 54% 29.93 in 10.0 mi Calm Calm - N/A   Mostly Cloudy
5:53 PM 73.9 °F 57.9 °F 57% 29.92 in 10.0 mi South 3.5 mph - N/A   Overcast
6:53 PM 75.0 °F 57.9 °F 55% 29.91 in 10.0 mi Variable 3.5 mph - N/A   Mostly Cloudy
7:53 PM 72.0 °F 57.9 °F 61% 29.90 in 10.0 mi Calm Calm - N/A   Clear
8:53 PM 68.0 °F 57.9 °F 70% 29.92 in 10.0 mi Calm Calm - N/A   Clear
9:53 PM 66.9 °F 57.9 °F 73% 29.94 in 10.0 mi Calm Calm - N/A   Partly Cloudy
10:53 PM 66.9 °F 57.9 °F 73% 29.94 in 10.0 mi Calm Calm - N/A   Clear
11:53 PM 66.0 °F 57.0 °F 73% 29.95 in 10.0 mi Calm Calm - N/A   Clear